カタログに戻る

DELTA 1 DEB

運用中PO
NORAD 9619·DEBRIS·🇺🇸 United States

打ち上げ Jan 22, 1975 から Vandenberg Space Force Base

Loading…

次のパス (今後24時間)

TLE

最新Source: Space-Track

元期: Sep 14, 2026, 09:46 UTC

1 09619U 75004FU  26257.40747558  .00001699  00000-0  42287-3 0  9994
2 09619  97.3928 230.5634 0100587  71.0044 290.2020 14.49754946684315

AllMySatでDELTA 1 DEBをリアルタイム追跡

Download on the App Store